"TOA5","MOW","CPU:UNC_MeetingWaters","DataHourly"
"TIMESTAMP","SondeTempC","SpCond","DOSat","DOmg","pH","Turb","BattVolt_Min"
"TS","","","","","","",""
"","Smp","Smp","Smp","Smp","Smp","Smp","Min"
"2004-07-01 00:00:00",-6999.0,0.0010000000475,104.699996948,8.88000011444,8.73999977112,108.900001526,12.529999733
"2004-07-01 01:00:00",-6999.0,0.0010000000475,104.699996948,8.88000011444,8.73999977112,108.900001526,12.5
"2004-07-01 02:00:00",-6999.0,0.0010000000475,104.699996948,8.88000011444,8.73999977112,108.900001526,12.4799995422
"2004-07-01 03:00:00",-6999.0,0.0010000000475,104.699996948,8.88000011444,8.73999977112,108.900001526,12.4499998093
"2004-07-01 04:00:00",-6999.0,0.0010000000475,104.699996948,8.88000011444,8.73999977112,108.900001526,12.4300003052
"2004-07-01 05:00:00",-6999.0,0.0010000000475,104.699996948,8.88000011444,8.73999977112,108.900001526,12.4099998474
"2004-07-01 06:00:00",-6999.0,0.0010000000475,104.699996948,8.88000011444,8.73999977112,108.900001526,12.3999996185
"2004-07-01 07:00:00",-6999.0,0.0010000000475,104.699996948,8.88000011444,8.73999977112,108.900001526,12.3900003433
"2004-07-01 08:00:00",-6999.0,0.0010000000475,104.699996948,8.88000011444,8.73999977112,108.900001526,12.4200000763
"2004-07-01 09:00:00",-6999.0,0.0010000000475,104.699996948,8.88000011444,8.73999977112,108.900001526,12.5799999237
"2004-07-01 10:00:00",-6999.0,0.0010000000475,104.699996948,8.88000011444,8.73999977112,108.900001526,12.7700004578
"2004-07-01 11:00:00",-6999.0,0.0010000000475,104.699996948,8.88000011444,8.73999977112,108.900001526,12.9200000763
"2004-07-01 12:00:00",-6999.0,0.0010000000475,104.699996948,8.88000011444,8.73999977112,108.900001526,12.9899997711
"2004-07-01 13:00:00",-6999.0,0.0010000000475,104.699996948,8.88000011444,8.73999977112,108.900001526,12.9899997711
"2004-07-01 14:00:00",-6999.0,0.0010000000475,104.699996948,8.88000011444,8.73999977112,108.900001526,12.9600000381
"2004-07-01 15:00:00",-6999.0,0.0010000000475,104.699996948,8.88000011444,8.73999977112,108.900001526,12.9499998093
"2004-07-01 16:00:00",24.1399993896,0.0010000000475,99.4000015259,8.34000015259,4.46999979019,3.09999990463,13.0100002289
"2004-07-01 17:00:00",24.4699993134,0.0010000000475,98.3000030518,8.19999980927,4.5,3.20000004768,12.9899997711
"2004-07-01 18:00:00",24.2399997711,0.0010000000475,98.1999969482,8.22999954224,4.42000007629,2.79999995232,12.6800003052
"2004-07-01 19:00:00",24.0599994659,0.0010000000475,98.4000015259,8.27999973297,4.11999988556,3.40000009537,12.6400003433
"2004-07-01 20:00:00",23.4799995422,0.0,99.3000030518,8.44999980927,4.48999977112,3.5,12.6099996567
"2004-07-01 21:00:00",22.8700008392,0.0,99.9000015259,8.59000015259,4.69999980927,3.40000009537,12.6000003815
"2004-07-01 22:00:00",22.7299995422,0.0,99.5999984741,8.59000015259,4.84000015259,3.40000009537,12.5799999237
"2004-07-01 23:00:00",22.2999992371,0.0,100.0,8.68999958038,4.98999977112,3.29999995232,12.5699996948
"2004-07-02 00:00:00",22.2999992371,0.0,99.8000030518,8.67000007629,5.07999992371,3.0,12.5600004196
"2004-07-02 01:00:00",22.0799999237,0.0,99.5999984741,8.68999958038,5.15000009537,2.5,12.5399999619
"2004-07-02 02:00:00",21.9500007629,0.0,98.6999969482,8.64000034332,5.23000001907,2.0,12.5200004578
"2004-07-02 03:00:00",21.8199996948,0.0,99.5999984741,8.73999977112,5.32000017166,2.59999990463,12.5100002289
"2004-07-02 04:00:00",21.7199993134,0.0,100.099998474,8.80000019073,5.36999988556,2.09999990463,12.4899997711
"2004-07-02 05:00:00",21.3600006104,0.0,99.9000015259,8.85000038147,5.44999980927,1.79999995232,12.470000267
"2004-07-02 06:00:00",21.25,0.0,99.8000030518,8.85000038147,5.53000020981,2.5,12.4499998093
"2004-07-02 07:00:00",21.4300003052,0.0,99.3000030518,8.77999973297,5.61999988556,4.30000019073,12.4300003052
"2004-07-02 08:00:00",22.1000003815,0.0,98.1999969482,8.56999969482,5.59000015259,3.09999990463,12.470000267
"2004-07-02 09:00:00",22.5799999237,0.0,98.5999984741,8.52999973297,5.5,3.0,12.5900001526
"2004-07-02 10:00:00",23.3199996948,0.0,99.1999969482,8.46000003815,5.40999984741,2.40000009537,12.8199996948
"2004-07-02 11:00:00",24.4599990845,0.0,97.8000030518,8.15999984741,5.28000020981,2.0,13.0600004196
"2004-07-02 12:00:00",25.3799991608,0.0,97.9000015259,8.02999973297,5.03000020981,2.0,12.8100004196
"2004-07-02 13:00:00",26.0300006866,0.0,99.8000030518,8.09000015259,4.94000005722,1.60000002384,12.7700004578
"2004-07-02 14:00:00",25.9099998474,0.0,97.8000030518,7.94999980927,4.96999979019,3.20000004768,12.8599996567
"2004-07-02 15:00:00",26.0599994659,0.0,97.3000030518,7.88999986649,5.01999998093,1.39999997616,12.8000001907
"2004-07-02 16:00:00",25.0799999237,0.0,97.3000030518,8.02999973297,5.28999996185,15.5,12.720000267
"2004-07-02 17:00:00",23.4599990845,0.0,96.4000015259,8.19999980927,7.78999996185,9.19999980927,12.6800003052
"2004-07-02 18:00:00",24.1900005341,0.0,96.8000030518,8.11999988556,7.09000015259,13.3999996185,12.6800003052
"2004-07-02 19:00:00",24.1800003052,0.0,96.5,8.10000038147,7.01000022888,16.2000007629,12.6199998856
"2004-07-02 20:00:00",23.8099994659,0.0,96.3000030518,8.14000034332,7.15000009537,14.1000003815,12.5900001526
"2004-07-02 21:00:00",23.3799991608,0.0,96.6999969482,8.22999954224,7.28000020981,13.1999998093,12.5799999237
"2004-07-02 22:00:00",22.9699993134,0.0,96.8000030518,8.31000041962,7.40999984741,11.3000001907,12.5699996948
"2004-07-02 23:00:00",22.5300006866,0.0,97.0999984741,8.39999961853,7.44000005722,9.19999980927,12.5600004196
"2004-07-03 00:00:00",22.1499996185,0.0,97.4000015259,8.5,7.26999998093,9.30000019073,12.5500001907
"2004-07-03 01:00:00",21.8299999237,0.0,98.5,8.64000034332,6.67000007629,7.90000009537,12.529999733
"2004-07-03 02:00:00",21.8199996948,0.0,98.8000030518,8.67000007629,6.90999984741,6.80000019073,12.5100002289
"2004-07-03 03:00:00",21.6000003815,0.0,98.5,8.68000030518,6.82999992371,6.0,12.4899997711
"2004-07-03 04:00:00",21.3799991608,0.0,98.3000030518,8.69999980927,6.84000015259,3.79999995232,12.470000267
"2004-07-03 05:00:00",21.2299995422,0.0,98.0999984741,8.71000003815,6.86000013351,3.40000009537,12.4499998093
"2004-07-03 06:00:00",21.0599994659,0.0,98.1999969482,8.75,6.84000015259,4.30000019073,12.4300003052
"2004-07-03 07:00:00",21.2000007629,0.0,98.1999969482,8.72000026703,6.94000005722,3.0,12.4099998474
"2004-07-03 08:00:00",21.7299995422,0.0,98.1999969482,8.63000011444,6.94000005722,2.20000004768,12.4099998474
"2004-07-03 09:00:00",22.0599994659,0.0,98.0,8.56000041962,6.82999992371,1.5,12.4399995804
"2004-07-03 10:00:00",22.75,0.0,97.8000030518,8.43000030518,6.46999979019,1.79999995232,12.8699998856
"2004-07-03 11:00:00",24.6200008392,0.0,97.5,8.11999988556,6.07000017166,1.39999997616,13.0600004196
"2004-07-03 12:00:00",24.6599998474,0.0,97.3000030518,8.09000015259,5.84999990463,1.79999995232,13.029999733
"2004-07-03 13:00:00",26.8400001526,0.0,100.400001526,8.02000045776,5.55000019073,2.0,12.9799995422
"2004-07-03 14:00:00",26.6800003052,0.0,97.8000030518,7.84000015259,5.46999979019,1.70000004768,12.9600000381
"2004-07-03 15:00:00",26.3400001526,0.0,97.0999984741,7.82999992371,5.5,1.70000004768,12.9600000381
"2004-07-03 16:00:00",25.6499996185,0.0,98.1999969482,8.02000045776,5.69999980927,2.0,12.7299995422
"2004-07-03 17:00:00",25.8400001526,0.0,99.4000015259,8.09000015259,5.78999996185,2.40000009537,12.8000001907
"2004-07-03 18:00:00",25.2800006866,0.0,99.9000015259,8.21000003815,5.86999988556,3.59999990463,12.6599998474
"2004-07-03 19:00:00",24.0400009155,0.194999992847,99.9000015259,8.39999961853,8.23999977112,24.3999996185,12.6199998856
"2004-07-03 20:00:00",26.1900005341,0.105999998748,93.8000030518,7.59000015259,7.63999986649,398.100006104,12.5900001526
"2004-07-03 21:00:00",25.2600002289,0.123999997973,88.4000015259,7.26000022888,7.59999990463,130.5,12.5799999237
"2004-07-03 22:00:00",24.8600006104,0.0010000000475,85.5999984741,7.09000015259,7.46000003815,84.5999984741,12.5699996948
"2004-07-03 23:00:00",24.1299991608,0.0,84.1999969482,7.07000017166,7.80999994278,53.5,12.5600004196
"2004-07-04 00:00:00",23.4799995422,0.0,101.800003052,8.65999984741,7.19000005722,43.2000007629,12.5500001907
"2004-07-04 01:00:00",22.9400005341,0.0,102.199996948,8.77999973297,7.13000011444,37.5,12.529999733
"2004-07-04 02:00:00",22.7900009155,0.0010000000475,102.099998474,8.78999996185,7.15999984741,29.2999992371,12.5100002289
"2004-07-04 03:00:00",22.7700004578,0.0010000000475,102.0,8.78999996185,7.15999984741,23.3999996185,12.5
"2004-07-04 04:00:00",22.8600006104,0.0010000000475,101.800003052,8.76000022888,7.19999980927,17.7000007629,12.4799995422
"2004-07-04 05:00:00",22.7800006866,0.0010000000475,100.599998474,8.65999984741,7.28999996185,14.3999996185,12.4600000381
"2004-07-04 06:00:00",22.75,0.0010000000475,100.5,8.67000007629,7.32999992371,11.8999996185,12.4399995804
"2004-07-04 07:00:00",22.8299999237,0.0010000000475,100.5,8.64999961853,7.38000011444,9.69999980927,12.4200000763
"2004-07-04 08:00:00",22.9200000763,0.0010000000475,100.599998474,8.64999961853,7.40999984741,8.30000019073,12.4200000763
"2004-07-04 09:00:00",23.1299991608,0.0010000000475,100.800003052,8.61999988556,7.53000020981,8.5,12.4899997711
"2004-07-04 10:00:00",23.3500003815,0.0010000000475,101.0,8.60999965668,7.53000020981,7.19999980927,12.7399997711
"2004-07-04 11:00:00",23.8299999237,0.0,101.099998474,8.53999996185,7.38999986649,6.59999990463,12.8500003815
"2004-07-04 12:00:00",26.5900001526,0.0,100.199996948,8.05000019073,5.98999977112,5.40000009537,12.8400001526
"2004-07-04 13:00:00",27.9799995422,0.0,106.0,8.30000019073,5.0,4.30000019073,12.9899997711
"2004-07-04 14:00:00",28.1499996185,0.0,101.300003052,7.90999984741,4.55999994278,4.0,12.9600000381
"2004-07-04 15:00:00",28.4500007629,0.0,100.0,7.76999998093,4.40999984741,3.5,12.9399995804
"2004-07-04 16:00:00",27.9799995422,0.0,100.5,7.86999988556,3.97000002861,3.0,12.9200000763
"2004-07-04 17:00:00",26.8999996185,0.0,100.900001526,8.06000041962,4.32000017166,3.0,12.8699998856
"2004-07-04 18:00:00",26.3700008392,0.0,100.699996948,8.11999988556,4.98000001907,3.0,12.6800003052
"2004-07-04 19:00:00",25.8700008392,0.0,100.5,8.18000030518,5.65999984741,2.40000009537,12.6400003433
"2004-07-04 20:00:00",25.0699996948,0.0,100.900001526,8.32999992371,6.03999996185,1.89999997616,12.6099996567
"2004-07-04 21:00:00",24.6599998474,0.0,100.900001526,8.39000034332,6.48999977112,1.89999997616,12.6000003815
"2004-07-04 22:00:00",24.7600002289,0.0,101.300003052,8.40999984741,5.44000005722,2.0,12.5799999237
"2004-07-04 23:00:00",23.6100006104,0.0,101.599998474,8.61999988556,6.46999979019,2.0,12.5699996948
"2004-07-05 00:00:00",23.1599998474,0.0,101.699996948,8.69999980927,6.86000013351,1.70000004768,12.5500001907
"2004-07-05 01:00:00",22.9699993134,0.0,101.699996948,8.72999954224,7.09000015259,1.60000002384,12.529999733
"2004-07-05 02:00:00",22.7000007629,0.0,101.800003052,8.77999973297,7.19000005722,1.89999997616,12.5100002289
"2004-07-05 03:00:00",22.3099994659,0.0,101.900001526,8.85000038147,7.23000001907,1.70000004768,12.4899997711
"2004-07-05 04:00:00",22.1299991608,0.0,101.800003052,8.88000011444,7.32000017166,1.60000002384,12.470000267
"2004-07-05 05:00:00",21.7999992371,0.0,102.0,8.96000003815,7.32000017166,2.90000009537,12.4600000381
"2004-07-05 06:00:00",21.6800003052,0.0,102.099998474,8.98999977112,7.38000011444,2.90000009537,12.4300003052
"2004-07-05 07:00:00",21.8099994659,0.0,102.099998474,8.96000003815,7.48000001907,2.70000004768,12.4099998474
"2004-07-05 08:00:00",22.2000007629,0.0,102.099998474,8.89000034332,7.51000022888,1.5,12.3999996185
"2004-07-05 09:00:00",22.9300003052,0.0,101.900001526,8.76000022888,7.51000022888,1.5,12.4200000763
"2004-07-05 10:00:00",24.1000003815,0.0,101.699996948,8.53999996185,7.28999996185,1.0,12.6300001144
"2004-07-05 11:00:00",26.9300003052,0.0,100.5,8.02000045776,6.01000022888,1.39999997616,13.029999733
"2004-07-05 12:00:00",30.0100002289,0.0,100.699996948,7.61000013351,4.09999990463,0.899999976158,12.9499998093
"2004-07-05 13:00:00",30.9799995422,0.0,108.300003052,8.05000019073,2.56999993324,0.800000011921,12.9200000763
"2004-07-05 14:00:00",31.1100006104,0.0,103.0,7.63999986649,1.17999994755,0.699999988079,12.8999996185
"2004-07-05 15:00:00",30.7900009155,0.0,102.199996948,7.61999988556,1.20000004768,0.800000011921,12.8699998856
"2004-07-05 16:00:00",30.6299991608,0.0,101.800003052,7.61999988556,1.27999997139,0.800000011921,12.8500003815
"2004-07-05 17:00:00",28.7999992371,0.0,102.5,7.92000007629,1.89999997616,1.10000002384,12.8400001526
"2004-07-05 18:00:00",27.9200000763,0.0,102.199996948,8.01000022888,3.25,0.899999976158,12.6800003052
"2004-07-05 19:00:00",27.1800003052,0.0,101.900001526,8.10000038147,4.30000019073,0.800000011921,12.6300001144
"2004-07-05 20:00:00",26.1700000763,0.0,102.0,8.25,5.07000017166,1.20000004768,12.6000003815
"2004-07-05 21:00:00",25.2800006866,0.0,102.099998474,8.39999961853,5.78999996185,1.5,12.5799999237
"2004-07-05 22:00:00",24.9099998474,0.0,102.300003052,8.47000026703,5.88000011444,1.39999997616,12.5699996948
"2004-07-05 23:00:00",24.4200000763,0.0,102.5,8.56999969482,5.96999979019,1.0,12.5600004196
"2004-07-06 00:00:00",24.0400009155,0.0,102.599998474,8.63000011444,6.34999990463,1.10000002384,12.5399999619
"2004-07-06 01:00:00",23.5100002289,0.0,102.699996948,8.72000026703,6.63999986649,0.899999976158,12.5200004578
"2004-07-06 02:00:00",23.2700004578,0.0,102.5,8.75,7.11000013351,1.5,12.5100002289
"2004-07-06 03:00:00",22.6100006104,0.0,102.699996948,8.86999988556,7.11000013351,1.79999995232,12.4799995422
"2004-07-06 04:00:00",22.2700004578,0.0,102.800003052,8.93999958038,7.23000001907,1.29999995232,12.4600000381
"2004-07-06 05:00:00",22.0699996948,0.0,102.800003052,8.97999954224,7.30999994278,2.0,12.4399995804
"2004-07-06 06:00:00",22.0900001526,0.0,102.800003052,8.97999954224,7.38000011444,1.10000002384,12.4200000763
"2004-07-06 07:00:00",21.9899997711,0.0,103.0,9.01000022888,7.38999986649,1.10000002384,12.4099998474
"2004-07-06 08:00:00",22.4899997711,0.0,102.900001526,8.90999984741,7.42999982834,1.5,12.3999996185
"2004-07-06 09:00:00",24.4500007629,0.0,102.599998474,8.56000041962,6.23000001907,1.29999995232,12.4200000763
"2004-07-06 10:00:00",25.6700000763,0.0,102.699996948,8.38000011444,5.55999994278,1.39999997616,12.6199998856
"2004-07-06 11:00:00",26.9699993134,0.0,103.0,8.21000003815,4.67999982834,1.29999995232,13.0
"2004-07-06 12:00:00",29.8500003815,0.0,102.0,7.73000001907,3.13000011444,1.29999995232,12.9399995804
"2004-07-06 13:00:00",31.2099990845,0.0,110.199996948,8.15999984741,1.12999999523,0.899999976158,12.8999996185
"2004-07-06 14:00:00",30.9500007629,0.0,104.900001526,7.80000019073,0.550000011921,1.39999997616,12.8900003433
"2004-07-06 15:00:00",30.8799991608,0.0,103.5,7.71000003815,7.44999980927,1.70000004768,12.8699998856
"2004-07-06 16:00:00",30.2600002289,0.0,102.900001526,7.75,0.680000007153,4.90000009537,12.8400001526
"2004-07-06 17:00:00",29.6299991608,0.0,102.900001526,7.82999992371,0.569999992847,8.30000019073,12.8299999237
"2004-07-06 18:00:00",27.8700008392,0.0,102.699996948,8.06000041962,2.44000005722,14.1000003815,12.6800003052
"2004-07-06 19:00:00",27.0900001526,0.0,102.400001526,8.14999961853,3.66000008583,16.1000003815,12.6300001144
"2004-07-06 20:00:00",26.0599994659,0.0,102.400001526,8.30000019073,4.63000011444,14.1999998093,12.6000003815
"2004-07-06 21:00:00",25.0200004578,0.0,102.699996948,8.47999954224,5.55000019073,12.8999996185,12.5799999237
"2004-07-06 22:00:00",24.5400009155,0.0,102.699996948,8.56000041962,6.07000017166,12.3000001907,12.5600004196
"2004-07-06 23:00:00",24.2999992371,0.0,102.699996948,8.60000038147,6.53999996185,11.8999996185,12.5500001907
"2004-07-07 00:00:00",24.0300006866,0.0,102.800003052,8.64999961853,6.67999982834,10.8999996185,12.529999733
"2004-07-07 01:00:00",23.8500003815,0.0,102.800003052,8.68000030518,6.98999977112,9.5,12.5100002289
"2004-07-07 02:00:00",23.2399997711,0.0,103.0,8.80000019073,7.05000019073,8.0,12.4899997711
"2004-07-07 03:00:00",22.7600002289,0.0,103.099998474,8.89000034332,7.15000009537,7.40000009537,12.470000267
"2004-07-07 04:00:00",22.5,0.0,103.099998474,8.93000030518,7.30999994278,5.5,12.4499998093
"2004-07-07 05:00:00",22.1499996185,0.0,103.199996948,9.0,7.38000011444,4.40000009537,12.4300003052
"2004-07-07 06:00:00",22.1200008392,0.0,103.099998474,9.0,7.53000020981,6.09999990463,12.4200000763
"2004-07-07 07:00:00",22.0900001526,0.0,103.199996948,9.01000022888,7.57999992371,4.30000019073,12.4099998474
"2004-07-07 08:00:00",22.3799991608,0.0,103.199996948,8.96000003815,7.59999990463,4.0,12.3999996185
"2004-07-07 09:00:00",23.6399993896,0.0,102.900001526,8.72000026703,7.63999986649,3.40000009537,12.5200004578
"2004-07-07 10:00:00",24.7399997711,0.0,103.199996948,8.56999969482,7.42000007629,3.09999990463,12.6099996567
"2004-07-07 11:00:00",27.1700000763,0.0,103.0,8.18000030518,6.23000001907,2.79999995232,13.0
"2004-07-07 12:00:00",30.2299995422,0.0,103.099998474,7.76999998093,4.26000022888,2.40000009537,12.9300003052
"2004-07-07 13:00:00",30.6800003052,0.0,108.400001526,8.10000038147,3.0,2.5,12.8999996185
"2004-07-07 14:00:00",30.7600002289,0.0,105.0,7.82999992371,2.20000004768,1.89999997616,12.8800001144
"2004-07-07 15:00:00",30.8700008392,0.0,104.5,7.78000020981,1.66999995708,1.70000004768,12.8500003815
"2004-07-07 16:00:00",28.8899993896,0.0,104.5,8.05000019073,2.54999995232,1.60000002384,12.6899995804
"2004-07-07 17:00:00",28.3099994659,0.0,104.199996948,8.10999965668,3.45000004768,1.60000002384,12.8599996567
"2004-07-07 18:00:00",28.2600002289,0.0,104.199996948,8.11999988556,3.11999988556,1.39999997616,12.6599998474
"2004-07-07 19:00:00",28.1599998474,0.0,104.400001526,8.14999961853,2.30999994278,1.0,12.6099996567
"2004-07-07 20:00:00",26.8199996948,0.0,104.099998474,8.32999992371,3.95000004768,1.10000002384,12.6000003815
"2004-07-07 21:00:00",24.9799995422,0.0,104.5,8.64000034332,4.78999996185,1.5,12.5799999237
"2004-07-07 22:00:00",23.9699993134,0.0,104.5,8.81000041962,5.55000019073,1.20000004768,12.5600004196
"2004-07-07 23:00:00",23.6299991608,0.0,104.5,8.85999965668,6.36999988556,1.29999995232,12.529999733
"2004-07-08 00:00:00",23.0499992371,0.0,104.699996948,8.97000026703,6.38000011444,2.20000004768,12.5200004578
"2004-07-08 01:00:00",22.5300006866,0.0,104.699996948,9.06000041962,6.80000019073,1.39999997616,12.4899997711
"2004-07-08 02:00:00",22.0400009155,0.0,104.800003052,9.14999961853,7.07999992371,3.90000009537,12.470000267
"2004-07-08 03:00:00",21.7000007629,0.0,104.800003052,9.22000026703,7.07000017166,4.0,12.4499998093
"2004-07-08 04:00:00",21.3199996948,0.0,104.900001526,9.28999996185,7.19000005722,2.29999995232,12.4300003052
"2004-07-08 05:00:00",20.9099998474,0.0,105.099998474,9.38000011444,7.26000022888,2.5,12.4099998474
"2004-07-08 06:00:00",20.8600006104,0.0,104.699996948,9.35999965668,7.38999986649,6.69999980927,12.3900003433
"2004-07-08 07:00:00",20.7000007629,0.0,104.800003052,9.39999961853,7.42000007629,10.6000003815,12.3800001144
"2004-07-08 08:00:00",21.2000007629,0.0,104.800003052,9.31000041962,7.46000003815,13.5,12.3699998856
"2004-07-08 09:00:00",22.1399993896,0.0,104.800003052,9.14000034332,7.46000003815,12.5,12.3900003433
"2004-07-08 10:00:00",23.3400001526,0.0,104.800003052,8.93000030518,7.26999998093,11.3999996185,12.5100002289
"2004-07-08 11:00:00",26.4699993134,0.0,104.400001526,8.39999961853,5.96000003815,9.19999980927,13.029999733
"2004-07-08 12:00:00",30.2399997711,0.0,104.800003052,7.88999986649,3.88000011444,7.59999990463,12.9499998093
"2004-07-08 13:00:00",30.6900005341,0.0,112.400001526,8.39999961853,2.92000007629,5.5,12.8999996185
"2004-07-08 14:00:00",30.2999992371,0.0,106.5,8.01000022888,2.23000001907,3.40000009537,12.720000267
"2004-07-08 15:00:00",29.6900005341,0.0,106.0,8.05000019073,1.51999998093,2.79999995232,12.720000267
"2004-07-08 16:00:00",30.2099990845,0.0,105.199996948,7.92000007629,1.17999994755,2.40000009537,12.8699998856
"2004-07-08 17:00:00",28.5300006866,0.0,105.5,8.18000030518,1.75,2.0,12.8500003815
"2004-07-08 18:00:00",26.9799995422,0.0,105.099998474,8.38000011444,3.48000001907,1.70000004768,12.6599998474
"2004-07-08 19:00:00",26.8500003815,0.0,105.5,8.43000030518,2.98000001907,1.5,12.6099996567
"2004-07-08 20:00:00",25.7700004578,0.0,105.5,8.59000015259,3.13000011444,1.79999995232,12.5799999237
"2004-07-08 21:00:00",24.3400001526,0.0,105.199996948,8.81000041962,5.17999982834,1.60000002384,12.5600004196
"2004-07-08 22:00:00",23.7199993134,0.0,105.300003052,8.90999984741,5.82999992371,1.0,12.5399999619
"2004-07-08 23:00:00",22.9400005341,0.0,105.400001526,9.05000019073,6.17999982834,1.79999995232,12.529999733
"2004-07-09 00:00:00",22.6599998474,0.0,105.300003052,9.09000015259,6.63999986649,3.90000009537,12.5100002289
"2004-07-09 01:00:00",22.3899993896,0.0,105.199996948,9.13000011444,6.98000001907,4.80000019073,12.4899997711
"2004-07-09 02:00:00",22.2299995422,0.0,105.199996948,9.15999984741,7.21000003815,4.80000019073,12.470000267
"2004-07-09 03:00:00",21.9099998474,0.0,105.199996948,9.22000026703,7.32000017166,4.19999980927,12.470000267
"2004-07-09 04:00:00",21.6599998474,0.0,105.300003052,9.27000045776,7.40999984741,3.90000009537,12.4399995804
"2004-07-09 05:00:00",21.5200004578,0.0,105.400001526,9.30000019073,7.48999977112,3.59999990463,12.4200000763
"2004-07-09 06:00:00",21.2099990845,0.0,105.5,9.35999965668,7.59999990463,3.20000004768,12.4099998474
"2004-07-09 07:00:00",21.1900005341,0.0,105.400001526,9.36999988556,7.61999988556,2.79999995232,12.3900003433
"2004-07-09 08:00:00",21.6399993896,0.0,105.400001526,9.27999973297,7.59000015259,2.79999995232,12.3800001144
"2004-07-09 09:00:00",22.5400009155,0.0,105.300003052,9.10999965668,7.59000015259,2.40000009537,12.3900003433
"2004-07-09 10:00:00",23.3299999237,0.0,105.099998474,8.96000003815,7.32999992371,2.09999990463,12.5
"2004-07-09 11:00:00",26.9200000763,0.0,104.900001526,8.36999988556,5.32999992371,2.29999995232,13.0200004578
"2004-07-09 12:00:00",30.5300006866,0.0,105.199996948,7.88000011444,0.72000002861,4.59999990463,12.9399995804
"2004-07-09 13:00:00",31.3400001526,0.0,114.099998474,8.43000030518,0.460000008345,4.80000019073,12.8999996185
"2004-07-09 14:00:00",31.4799995422,0.0,107.699996948,7.94000005722,0.0500000007451,4.59999990463,12.8800001144
"2004-07-09 15:00:00",31.1200008392,0.0,106.300003052,7.88999986649,0.360000014305,3.5,12.8500003815
"2004-07-09 16:00:00",31.0499992371,0.0,105.900001526,7.86000013351,-0.019999999553,2.40000009537,12.8199996948
"2004-07-09 17:00:00",29.1200008392,0.0,106.0,8.14000034332,0.460000008345,2.0,12.8100004196
"2004-07-09 18:00:00",27.6700000763,0.0,105.599998474,8.31999969482,2.41000008583,1.70000004768,12.7100000381
"2004-07-09 19:00:00",26.8899993896,0.0,105.5,8.42000007629,3.40000009537,1.60000002384,12.6300001144
"2004-07-09 20:00:00",25.7999992371,0.0,105.599998474,8.60000038147,4.23000001907,1.5,12.6000003815
"2004-07-09 21:00:00",24.7299995422,0.0,105.699996948,8.77999973297,5.03999996185,1.70000004768,12.5799999237
"2004-07-09 22:00:00",24.2299995422,0.0,105.699996948,8.85999965668,5.53999996185,1.79999995232,12.5600004196
"2004-07-09 23:00:00",23.6800003052,0.0,105.599998474,8.94999980927,5.98000001907,1.70000004768,12.529999733
"2004-07-10 00:00:00",23.1000003815,0.0,105.800003052,9.06000041962,6.26000022888,2.20000004768,12.5200004578
"2004-07-10 01:00:00",22.7900009155,0.0,105.699996948,9.10000038147,6.76999998093,1.70000004768,12.5100002289
"2004-07-10 02:00:00",22.5200004578,0.0,105.699996948,9.14999961853,7.07000017166,1.39999997616,12.4899997711
"2004-07-10 03:00:00",22.5200004578,0.0,105.5,9.14000034332,7.23999977112,1.5,12.470000267
"2004-07-10 04:00:00",22.4799995422,0.0,105.5,9.14000034332,7.42000007629,2.59999990463,12.4499998093